Location: Amsterdam
(30.7274°N, 84.4357°W)
Time: 15:06:24
(UTC+00:00)

Vanguard 1 Rocket - Pass Details

Date: 17 February 2026
Orbit: 653 x 4214 km, 34.3° (Epoch: 6 March)

Event Time Altitude Azimuth Distance (km) Brightness Sun altitude
Rises 04:39:09 0° 277° (W) 8,304 12.6 -64.8°
Reaches altitude 10° 04:50:06 10° 256° (WSW) 7,413 12.1 -66.5°
Maximum altitude 05:00:13 14° 233° (SW) 6,868 11.7 -67.8°
Enters shadow 05:05:00 13° 220° (SW) 6,742 11.6 -68.4°
